| time (UTC) | temp F | wind direction | speed knots | gust knots | rain 1hr in | rain 24hr in | rain mn in | humidity % | barometer mb |
| 20260510120833 | 69 | 111 | 1.7 | 2.6 | 0.00 | 0.00 | 0.00 | 98 | 1012.5 |
| 20260510120330 | 69 | 188 | 2.6 | 3.5 | 0.00 | 0.00 | 0.00 | 98 | 1012.2 |
| 20260510115826 | 69 | 133 | 2.6 | 3.5 | 0.00 | 0.00 | 0.00 | 98 | 1012.1 |
| 20260510115323 | 69 | 148 | 1.7 | 3.5 | 0.00 | 0.00 | 0.00 | 98 | 1012.0 |
| 20260510114819 | 69 | 174 | 0.9 | 2.6 | 0.00 | 0.00 | 0.00 | 98 | 1011.9 |
| 20260510114316 | 69 | 164 | 1.7 | 3.5 | 0.00 | 0.00 | 0.00 | 98 | 1011.9 |
| 20260510113811 | 69 | 133 | 3.5 | 3.5 | 0.00 | 0.00 | 0.00 | 98 | 1011.9 |
| 20260510113308 | 69 | 103 | 1.7 | 5.2 | 0.00 | 0.00 | 0.00 | 98 | 1011.8 |
| 20260510112805 | 68 | 118 | 2.6 | 3.5 | 0.00 | 0.00 | 0.00 | 97 | 1011.5 |
| 20260510112305 | 68 | 121 | 1.7 | 2.6 | 0.00 | 0.00 | 0.00 | 97 | 1011.9 |
| 20260510111757 | 68 | 134 | 0.9 | 2.6 | 0.00 | 0.00 | 0.00 | 97 | 1011.6 |
| 20260510111255 | 67 | 175 | 0.9 | 1.7 | 0.00 | 0.00 | 0.00 | 97 | 1011.7 |
| 20260510110754 | 67 | 130 | 0.0 | 0.9 | 0.00 | 0.00 | 0.00 | 97 | 1011.7 |
| 20260510110252 | 67 | 137 | 0.0 | 0.9 | 0.00 | 0.00 | 0.00 | 97 | 1011.7 |
| 20260510105752 | 67 | 135 | 0.0 | 0.9 | 0.00 | 0.00 | 0.00 | 97 | 1011.7 |
| 20260510105247 | 67 | 136 | 0.0 | 0.9 | 0.00 | 0.00 | 0.00 | 97 | 1011.7 |
| 20260510104743 | 67 | 141 | 0.0 | 0.9 | 0.00 | 0.00 | 0.00 | 97 | 1011.5 |
| 20260510104241 | 67 | 142 | 0.0 | 0.0 | 0.00 | 0.00 | 0.00 | 97 | 1011.6 |
| 20260510103737 | 67 | 128 | 0.0 | 0.0 | 0.00 | 0.00 | 0.00 | 97 | 1011.6 |
| 20260510103235 | 67 | 138 | 0.0 | 0.0 | 0.00 | 0.00 | 0.00 | 96 | 1011.5 |
| 20260510102734 | 67 | 132 | 0.0 | 0.9 | 0.00 | 0.00 | 0.00 | 96 | 1011.7 |
| 20260510102230 | 67 | 139 | 0.9 | 0.9 | 0.00 | 0.00 | 0.00 | 96 | 1011.6 |
| 20260510101728 | 67 | 127 | 0.0 | 0.9 | 0.00 | 0.00 | 0.00 | 96 | 1011.6 |
| 20260510101226 | 67 | 109 | 0.0 | 0.9 | 0.00 | 0.00 | 0.00 | 96 | 1011.7 |
| 20260510100722 | 67 | 140 | 0.0 | 0.9 | 0.00 | 0.00 | 0.00 | 96 | 1011.7 |
| 20260510100220 | 67 | 145 | 0.0 | 0.9 | 0.00 | 0.00 | 0.00 | 96 | 1011.7 |
| 20260510095715 | 67 | 149 | 0.0 | 0.0 | 0.00 | 0.00 | 0.00 | 96 | 1011.6 |
| 20260510095211 | 67 | 135 | 0.0 | 0.0 | 0.00 | 0.00 | 0.00 | 96 | 1011.8 |
| 20260510094709 | 67 | 145 | 0.0 | 0.9 | 0.00 | 0.00 | 0.00 | 96 | 1011.6 |
| 20260510094205 | 67 | 197 | 0.0 | 0.9 | 0.00 | 0.00 | 0.00 | 96 | 1011.6 |
| 20260510093701 | 67 | 145 | 0.0 | 0.0 | 0.00 | 0.00 | 0.00 | 95 | 1011.7 |
| 20260510093159 | 67 | 149 | 0.0 | 0.0 | 0.00 | 0.00 | 0.00 | 95 | 1011.7 |
| 20260510092655 | 67 | 141 | 0.0 | 0.9 | 0.00 | 0.00 | 0.00 | 95 | 1011.8 |
| 20260510092150 | 68 | 145 | 0.0 | 0.0 | 0.00 | 0.00 | 0.00 | 95 | 1011.8 |
| 20260510091646 | 68 | 139 | 0.0 | 0.9 | 0.00 | 0.00 | 0.00 | 95 | 1011.6 |
| 20260510091143 | 68 | 139 | 0.0 | 0.0 | 0.00 | 0.00 | 0.00 | 95 | 1011.7 |
| 20260510090640 | 68 | 140 | 0.0 | 0.0 | 0.00 | 0.00 | 0.00 | 95 | 1011.8 |
| 20260510090136 | 68 | 140 | 0.0 | 0.0 | 0.00 | 0.00 | 0.00 | 95 | 1011.8 |
| 20260510085631 | 68 | 121 | 0.9 | 1.7 | 0.00 | 0.00 | 0.00 | 95 | 1011.7 |
| 20260510085126 | 68 | 124 | 0.9 | 1.7 | 0.00 | 0.00 | 0.00 | 95 | 1011.7 |
| 20260510084623 | 68 | 146 | 0.9 | 0.9 | 0.00 | 0.00 | 0.00 | 94 | 1011.8 |
| 20260510084120 | 68 | 141 | 0.0 | 0.0 | 0.00 | 0.00 | 0.00 | 94 | 1011.6 |
| 20260510083617 | 68 | 143 | 0.9 | 1.7 | 0.00 | 0.00 | 0.00 | 94 | 1011.7 |
| 20260510083113 | 68 | 126 | 0.9 | 1.7 | 0.00 | 0.00 | 0.00 | 94 | 1011.7 |
| 20260510082610 | 69 | 151 | 0.0 | 1.7 | 0.00 | 0.00 | 0.00 | 94 | 1011.7 |
| 20260510082105 | 69 | 143 | 1.7 | 1.7 | 0.00 | 0.00 | 0.00 | 93 | 1011.8 |
| 20260510081600 | 69 | 174 | 0.9 | 2.6 | 0.00 | 0.00 | 0.00 | 93 | 1011.8 |
| 20260510081056 | 69 | 154 | 1.7 | 1.7 | 0.00 | 0.00 | 0.00 | 93 | 1011.8 |
| 20260510080555 | 69 | 121 | 0.9 | 1.7 | 0.00 | 0.00 | 0.00 | 93 | 1011.9 |
| 20260510080053 | 69 | 139 | 0.9 | 1.7 | 0.00 | 0.00 | 0.00 | 93 | 1011.9 |
| 20260510075550 | 70 | 140 | 0.9 | 2.6 | 0.00 | 0.00 | 0.00 | 93 | 1011.8 |
| 20260510075046 | 70 | 138 | 1.7 | 3.5 | 0.00 | 0.00 | 0.00 | 93 | 1011.9 |
| 20260510074544 | 70 | 134 | 3.5 | 3.5 | 0.00 | 0.00 | 0.00 | 93 | 1011.9 |
| 20260510074039 | 69 | 135 | 2.6 | 3.5 | 0.00 | 0.00 | 0.00 | 93 | 1011.8 |
| 20260510073535 | 69 | 134 | 2.6 | 2.6 | 0.00 | 0.00 | 0.00 | 92 | 1011.9 |
| 20260510073033 | 70 | 131 | 0.9 | 1.7 | 0.00 | 0.00 | 0.00 | 92 | 1011.6 |
| 20260510072530 | 70 | 120 | 0.9 | 1.7 | 0.00 | 0.00 | 0.00 | 92 | 1011.8 |
| 20260510072025 | 70 | 122 | 0.0 | 0.9 | 0.00 | 0.00 | 0.00 | 92 | 1011.9 |
| 20260510071521 | 69 | 142 | 0.0 | 0.0 | 0.00 | 0.00 | 0.00 | 92 | 1011.8 |
| 20260510071020 | 69 | 142 | 0.0 | 0.0 | 0.00 | 0.00 | 0.00 | 91 | 1011.7 |
| 20260510070516 | 69 | 142 | 0.0 | 0.0 | 0.00 | 0.00 | 0.00 | 91 | 1012.0 |
| 20260510070013 | 70 | 142 | 0.0 | 0.0 | 0.00 | 0.00 | 0.00 | 91 | 1012.0 |
| 20260510065509 | 70 | 143 | 0.0 | 0.9 | 0.00 | 0.00 | 0.00 | 90 | 1011.9 |
| 20260510065005 | 70 | 137 | 0.0 | 0.9 | 0.00 | 0.00 | 0.00 | 90 | 1012.1 |
| 20260510064503 | 70 | 141 | 0.0 | 0.9 | 0.00 | 0.00 | 0.00 | 89 | 1012.0 |
| 20260510063959 | 71 | 139 | 0.0 | 0.9 | 0.00 | 0.00 | 0.00 | 89 | 1012.0 |
| 20260510063455 | 71 | 123 | 1.7 | 1.7 | 0.00 | 0.00 | 0.00 | 88 | 1012.1 |
| 20260510062953 | 71 | 128 | 0.0 | 0.0 | 0.00 | 0.00 | 0.00 | 88 | 1012.0 |
| 20260510062449 | 72 | 130 | 0.9 | 1.7 | 0.00 | 0.00 | 0.00 | 87 | 1012.3 |
| 20260510061944 | 72 | 155 | 1.7 | 2.6 | 0.00 | 0.00 | 0.00 | 87 | 1012.0 |
| 20260510061441 | 72 | 122 | 1.7 | 2.6 | 0.00 | 0.00 | 0.00 | 86 | 1012.1 |
| 20260510060937 | 72 | 137 | 2.6 | 5.2 | 0.00 | 0.00 | 0.00 | 86 | 1012.2 |
| 20260510060434 | 72 | 142 | 3.5 | 3.5 | 0.00 | 0.00 | 0.00 | 86 | 1012.4 |
| 20260510055930 | 72 | 109 | 3.5 | 5.2 | 0.00 | 0.00 | 0.00 | 86 | 1012.1 |
| 20260510055426 | 73 | 124 | 2.6 | 3.5 | 0.00 | 0.00 | 0.00 | 85 | 1012.1 |
| 20260510054925 | 73 | 138 | 2.6 | 5.2 | 0.00 | 0.00 | 0.00 | 85 | 1011.9 |
| 20260510054420 | 73 | 135 | 1.7 | 3.5 | 0.00 | 0.00 | 0.00 | 85 | 1012.1 |
| 20260510053915 | 73 | 140 | 2.6 | 5.2 | 0.00 | 0.00 | 0.00 | 85 | 1012.0 |
| 20260510053411 | 73 | 194 | 1.7 | 3.5 | 0.00 | 0.00 | 0.00 | 85 | 1012.2 |
| 20260510052907 | 73 | 137 | 2.6 | 5.2 | 0.00 | 0.00 | 0.00 | 85 | 1012.0 |
| 20260510052403 | 73 | 123 | 1.7 | 3.5 | 0.00 | 0.00 | 0.00 | 84 | 1012.1 |
| 20260510051859 | 74 | 150 | 2.6 | 6.1 | 0.00 | 0.00 | 0.00 | 84 | 1012.0 |
| 20260510051356 | 74 | 136 | 5.2 | 7.0 | 0.00 | 0.00 | 0.00 | 84 | 1011.9 |
| 20260510050853 | 74 | 128 | 3.5 | 5.2 | 0.00 | 0.00 | 0.00 | 83 | 1011.8 |
| 20260510050349 | 74 | 133 | 3.5 | 6.1 | 0.00 | 0.00 | 0.00 | 83 | 1011.8 |
| 20260510045846 | 74 | 120 | 2.6 | 5.2 | 0.00 | 0.00 | 0.00 | 83 | 1011.7 |
| 20260510045343 | 74 | 114 | 3.5 | 5.2 | 0.00 | 0.00 | 0.00 | 83 | 1011.8 |
| 20260510044840 | 74 | 121 | 3.5 | 6.1 | 0.00 | 0.00 | 0.00 | 84 | 1011.5 |
| 20260510044337 | 73 | 122 | 2.6 | 3.5 | 0.00 | 0.00 | 0.00 | 84 | 1011.4 |
| 20260510043834 | 73 | 111 | 1.7 | 3.5 | 0.00 | 0.00 | 0.00 | 85 | 1011.8 |
| 20260510043329 | 73 | 105 | 2.6 | 3.5 | 0.00 | 0.00 | 0.00 | 85 | 1011.7 |
| 20260510042828 | 73 | 134 | 0.9 | 1.7 | 0.00 | 0.00 | 0.00 | 84 | 1011.6 |
| 20260510042323 | 74 | 144 | 1.7 | 1.7 | 0.00 | 0.00 | 0.00 | 84 | 1011.5 |
| 20260510041820 | 74 | 139 | 0.9 | 2.6 | 0.00 | 0.00 | 0.00 | 83 | 1011.4 |
| 20260510041317 | 74 | 118 | 1.7 | 3.5 | 0.00 | 0.00 | 0.00 | 83 | 1011.6 |
| 20260510040814 | 74 | 106 | 1.7 | 5.2 | 0.00 | 0.00 | 0.00 | 84 | 1011.5 |
| 20260510040311 | 74 | 126 | 1.7 | 3.5 | 0.00 | 0.00 | 0.00 | 84 | 1011.5 |
| 20260510035806 | 74 | 125 | 1.7 | 2.6 | 0.00 | 0.00 | 0.00 | 83 | 1011.5 |
| 20260510035306 | 74 | 138 | 2.6 | 3.5 | 0.00 | 0.00 | 0.00 | 82 | 1011.2 |
| 20260510034758 | 74 | 159 | 3.5 | 5.2 | 0.00 | 0.00 | 0.00 | 81 | 1011.2 |
| 20260510034256 | 75 | 112 | 1.7 | 2.6 | 0.00 | 0.00 | 0.00 | 81 | 1011.3 |
| 20260510033752 | 75 | 117 | 3.5 | 3.5 | 0.00 | 0.00 | 0.00 | 80 | 1011.3 |
| 20260510033250 | 75 | 113 | 1.7 | 3.5 | 0.00 | 0.00 | 0.00 | 80 | 1011.0 |
| 20260510032746 | 75 | 163 | 0.9 | 3.5 | 0.00 | 0.00 | 0.00 | 79 | 1011.1 |
| 20260510032242 | 75 | 120 | 1.7 | 5.2 | 0.00 | 0.00 | 0.00 | 79 | 1011.0 |
| 20260510031737 | 75 | 119 | 2.6 | 3.5 | 0.00 | 0.00 | 0.00 | 78 | 1010.9 |
| 20260510031233 | 75 | 130 | 1.7 | 3.5 | 0.00 | 0.00 | 0.00 | 76 | 1010.6 |
| 20260510030733 | 75 | 91 | 0.9 | 3.5 | 0.00 | 0.00 | 0.00 | 76 | 1010.7 |
| 20260510030231 | 75 | 135 | 2.6 | 3.5 | 0.00 | 0.00 | 0.00 | 75 | 1010.9 |
| 20260510025728 | 75 | 115 | 3.5 | 7.8 | 0.00 | 0.00 | 0.00 | 76 | 1010.8 |
| 20260510025225 | 75 | 107 | 0.9 | 1.7 | 0.00 | 0.00 | 0.00 | 79 | 1010.6 |
| 20260510024722 | 75 | 97 | 0.9 | 1.7 | 0.00 | 0.00 | 0.00 | 80 | 1010.8 |
| 20260510024219 | 74 | 101 | 0.0 | 0.9 | 0.00 | 0.00 | 0.00 | 80 | 1010.6 |
| 20260510023714 | 74 | 82 | 0.9 | 0.9 | 0.00 | 0.00 | 0.00 | 82 | 1010.5 |
| 20260510023212 | 74 | 98 | 0.0 | 0.0 | 0.00 | 0.00 | 0.00 | 83 | 1010.5 |
| 20260510022707 | 74 | 92 | 0.0 | 0.9 | 0.00 | 0.00 | 0.00 | 84 | 1010.4 |
| 20260510022202 | 74 | 96 | 0.0 | 0.0 | 0.00 | 0.00 | 0.00 | 84 | 1010.4 |
| 20260510021658 | 74 | 89 | 0.0 | 0.9 | 0.00 | 0.00 | 0.00 | 85 | 1010.0 |
| 20260510021155 | 73 | 83 | 0.0 | 0.9 | 0.00 | 0.00 | 0.00 | 85 | 1010.2 |
| 20260510020649 | 73 | 98 | 0.0 | 0.0 | 0.00 | 0.00 | 0.00 | 85 | 1010.0 |
| 20260510020145 | 73 | 99 | 0.0 | 0.0 | 0.00 | 0.00 | 0.00 | 85 | 1010.0 |
| 20260510015641 | 73 | 99 | 0.0 | 0.9 | 0.00 | 0.00 | 0.00 | 85 | 1009.8 |
| 20260510015138 | 73 | 110 | 0.0 | 0.0 | 0.00 | 0.00 | 0.00 | 85 | 1009.8 |
| 20260510014633 | 73 | 110 | 0.0 | 0.9 | 0.00 | 0.00 | 0.00 | 85 | 1009.6 |
| 20260510014131 | 74 | 97 | 0.0 | 0.0 | 0.00 | 0.00 | 0.00 | 85 | 1009.5 |
| 20260510013631 | 74 | 95 | 0.0 | 0.0 | 0.00 | 0.00 | 0.00 | 84 | 1009.6 |
| 20260510013126 | 74 | 106 | 0.0 | 0.0 | 0.00 | 0.00 | 0.00 | 84 | 1009.5 |
| 20260510012626 | 74 | 75 | 0.0 | 0.9 | 0.00 | 0.00 | 0.00 | 83 | 1009.4 |
| 20260510012123 | 75 | 68 | 0.9 | 0.9 | 0.00 | 0.00 | 0.00 | 83 | 1009.3 |
| 20260510011622 | 75 | 79 | 0.0 | 0.9 | 0.00 | 0.00 | 0.00 | 83 | 1009.2 |
| 20260510011118 | 75 | 99 | 0.0 | 0.9 | 0.00 | 0.00 | 0.00 | 82 | 1009.4 |
| 20260510010615 | 75 | 61 | 0.9 | 0.9 | 0.00 | 0.00 | 0.00 | 82 | 1009.1 |
| 20260510010113 | 76 | 82 | 0.0 | 0.9 | 0.00 | 0.00 | 0.00 | 82 | 1009.2 |
| 20260510005608 | 76 | 106 | 0.0 | 0.9 | 0.00 | 0.00 | 0.00 | 80 | 1009.1 |
| 20260510005105 | 76 | 98 | 0.0 | 0.9 | 0.00 | 0.00 | 0.00 | 78 | 1009.3 |
| 20260510004603 | 76 | 108 | 0.0 | 0.0 | 0.00 | 0.00 | 0.00 | 77 | 1009.2 |
| 20260510004101 | 77 | 105 | 0.9 | 0.9 | 0.00 | 0.00 | 0.00 | 77 | 1009.1 |
| 20260510003557 | 77 | 51 | 0.9 | 1.7 | 0.00 | 0.00 | 0.00 | 76 | 1009.4 |
| 20260510003053 | 77 | 147 | 0.0 | 0.0 | 0.00 | 0.00 | 0.00 | 76 | 1009.2 |
| 20260510002548 | 77 | 147 | 0.0 | 0.9 | 0.00 | 0.00 | 0.00 | 77 | 1009.2 |
| 20260510002046 | 77 | 213 | 0.0 | 0.9 | 0.00 | 0.00 | 0.00 | 76 | 1009.4 |
| 20260510001543 | 78 | 210 | 0.9 | 1.7 | 0.00 | 0.00 | 0.00 | 77 | 1009.3 |
| 20260510001041 | 78 | 146 | 0.0 | 0.9 | 0.00 | 0.00 | 0.00 | 77 | 1009.4 |
| 20260510000536 | 78 | 116 | 0.0 | 0.0 | 0.00 | 0.00 | 0.00 | 75 | 1009.4 |
| 20260510000033 | 79 | 112 | 0.0 | 0.0 | 0.00 | 0.00 | 0.00 | 73 | 1009.5 |
| 20260509235530 | 79 | 66 | 0.9 | 0.9 | 0.00 | 0.00 | 0.00 | 70 | 1009.5 |
| 20260509235027 | 79 | 297 | 0.9 | 1.7 | 0.00 | 0.00 | 0.00 | 66 | 1009.6 |
| 20260509234523 | 79 | 120 | 0.0 | 0.9 | 0.00 | 0.00 | 0.00 | 64 | 1009.7 |
| 20260509234021 | 80 | 72 | 0.9 | 2.6 | 0.00 | 0.00 | 0.00 | 63 | 1009.2 |
| 20260509233518 | 80 | 18 | 0.9 | 1.7 | 0.00 | 0.00 | 0.00 | 62 | 1009.3 |
| 20260509233015 | 80 | 47 | 2.6 | 3.5 | 0.00 | 0.00 | 0.00 | 63 | 1008.7 |
| 20260509232512 | 80 | 80 | 1.7 | 1.7 | 0.00 | 0.00 | 0.00 | 62 | 1008.8 |
| 20260509232008 | 80 | 56 | 1.7 | 2.6 | 0.00 | 0.00 | 0.00 | 60 | 1009.2 |
| 20260509231505 | 81 | 56 | 2.6 | 3.5 | 0.00 | 0.00 | 0.00 | 60 | 1009.3 |
| 20260509231002 | 82 | 53 | 3.5 | 6.1 | 0.00 | 0.00 | 0.00 | 59 | 1009.2 |
| 20260509230459 | 84 | 38 | 6.1 | 7.8 | 0.00 | 0.00 | 0.00 | 56 | 1009.2 |
| 20260509225955 | 87 | 59 | 5.2 | 8.7 | 0.00 | 0.00 | 0.00 | 51 | 1009.2 |
| 20260509225452 | 89 | 68 | 3.5 | 5.2 | 0.00 | 0.00 | 0.00 | 53 | 1009.1 |
| 20260509224947 | 90 | 155 | 1.7 | 3.5 | 0.00 | 0.00 | 0.00 | 51 | 1008.6 |
| 20260509224443 | 89 | 142 | 0.0 | 1.7 | 0.00 | 0.00 | 0.00 | 53 | 1008.7 |
| 20260509223940 | 90 | 116 | 1.7 | 2.6 | 0.00 | 0.00 | 0.00 | 51 | 1008.6 |
| 20260509223437 | 92 | 134 | 0.9 | 1.7 | 0.00 | 0.00 | 0.00 | 49 | 1008.5 |
| 20260509222934 | 92 | 121 | 0.0 | 0.9 | 0.00 | 0.00 | 0.00 | 47 | 1008.8 |
| 20260509222429 | 92 | 129 | 0.0 | 0.9 | 0.00 | 0.00 | 0.00 | 47 | 1008.3 |
| 20260509221926 | 92 | 163 | 0.0 | 1.7 | 0.00 | 0.00 | 0.00 | 48 | 1008.1 |
| 20260509221422 | 92 | 184 | 0.0 | 1.7 | 0.00 | 0.00 | 0.00 | 49 | 1008.3 |
| 20260509220918 | 91 | 194 | 0.9 | 0.9 | 0.00 | 0.00 | 0.00 | 52 | 1008.2 |
| 20260509220414 | 91 | 179 | 1.7 | 1.7 | 0.00 | 0.00 | 0.00 | 50 | 1008.1 |
| 20260509215910 | 92 | 127 | 0.0 | 3.5 | 0.00 | 0.00 | 0.00 | 52 | 1008.1 |
| 20260509215406 | 94 | 149 | 0.9 | 2.6 | 0.00 | 0.00 | 0.00 | 48 | 1008.2 |
| 20260509214904 | 95 | 218 | 0.0 | 0.9 | 0.00 | 0.00 | 0.00 | 46 | 1008.3 |
| 20260509214401 | 93 | 129 | 0.0 | 0.0 | 0.00 | 0.00 | 0.00 | 44 | 1008.6 |
| 20260509213858 | 93 | 89 | 0.9 | 0.9 | 0.00 | 0.00 | 0.00 | 44 | 1008.5 |
| 20260509213353 | 94 | 227 | 1.7 | 2.6 | 0.00 | 0.00 | 0.00 | 43 | 1008.5 |
| 20260509212851 | 93 | 228 | 0.9 | 0.9 | 0.00 | 0.00 | 0.00 | 46 | 1008.4 |
| 20260509212348 | 92 | 191 | 0.0 | 0.9 | 0.00 | 0.00 | 0.00 | 46 | 1008.6 |
| 20260509211844 | 92 | 211 | 0.9 | 1.7 | 0.00 | 0.00 | 0.00 | 48 | 1008.7 |
| 20260509211340 | 93 | 109 | 2.6 | 3.5 | 0.00 | 0.00 | 0.00 | 46 | 1008.7 |
| 20260509210837 | 93 | 209 | 1.7 | 2.6 | 0.00 | 0.00 | 0.00 | 47 | 1008.7 |
| 20260509210335 | 93 | 110 | 0.9 | 2.6 | 0.00 | 0.00 | 0.00 | 46 | 1008.8 |
| 20260509205834 | 93 | 180 | 1.7 | 1.7 | 0.00 | 0.00 | 0.00 | 46 | 1008.8 |
| 20260509205329 | 92 | 233 | 0.9 | 2.6 | 0.00 | 0.00 | 0.00 | 49 | 1008.9 |
| 20260509204826 | 93 | 97 | 1.7 | 3.5 | 0.00 | 0.00 | 0.00 | 50 | 1009.0 |
| 20260509204322 | 93 | 122 | 0.0 | 1.7 | 0.00 | 0.00 | 0.00 | 50 | 1009.2 |
| 20260509203818 | 93 | 222 | 0.9 | 1.7 | 0.00 | 0.00 | 0.00 | 49 | 1009.2 |
| 20260509203315 | 93 | 194 | 0.9 | 0.9 | 0.00 | 0.00 | 0.00 | 51 | 1009.2 |
| 20260509202812 | 93 | 91 | 0.0 | 1.7 | 0.00 | 0.00 | 0.00 | 52 | 1009.4 |
| 20260509202308 | 93 | 142 | 0.0 | 2.6 | 0.00 | 0.00 | 0.00 | 52 | 1009.4 |
| 20260509201807 | 93 | 186 | 0.9 | 1.7 | 0.00 | 0.00 | 0.00 | 49 | 1009.6 |
| 20260509201304 | 92 | 181 | 1.7 | 1.7 | 0.00 | 0.00 | 0.00 | 49 | 1009.5 |
| 20260509200800 | 92 | 354 | 0.9 | 1.7 | 0.00 | 0.00 | 0.00 | 51 | 1009.5 |
| 20260509200255 | 92 | 286 | 0.9 | 0.9 | 0.00 | 0.00 | 0.00 | 51 | 1009.5 |
| 20260509195752 | 92 | 212 | 0.9 | 0.9 | 0.00 | 0.00 | 0.00 | 54 | 1009.5 |
| 20260509195248 | 92 | 165 | 0.9 | 3.5 | 0.00 | 0.00 | 0.00 | 51 | 1009.5 |
| 20260509194748 | 92 | 254 | 0.9 | 0.9 | 0.00 | 0.00 | 0.00 | 50 | 1009.6 |
| 20260509194244 | 92 | 352 | 0.9 | 1.7 | 0.00 | 0.00 | 0.00 | 49 | 1009.5 |
| 20260509193741 | 91 | 135 | 0.0 | 1.7 | 0.00 | 0.00 | 0.00 | 50 | 1009.7 |
| 20260509193241 | 92 | 216 | 0.9 | 1.7 | 0.00 | 0.00 | 0.00 | 51 | 1009.7 |
| 20260509192737 | 91 | 199 | 0.9 | 1.7 | 0.00 | 0.00 | 0.00 | 54 | 1009.7 |
| 20260509192232 | 91 | 204 | 0.0 | 1.7 | 0.00 | 0.00 | 0.00 | 57 | 1009.6 |
| 20260509191728 | 91 | 168 | 0.0 | 1.7 | 0.00 | 0.00 | 0.00 | 56 | 1009.8 |
| 20260509191225 | 91 | 212 | 0.9 | 2.6 | 0.00 | 0.00 | 0.00 | 56 | 1009.8 |
| 20260509190720 | 91 | 61 | 0.9 | 1.7 | 0.00 | 0.00 | 0.00 | 56 | 1009.9 |
| 20260509190218 | 90 | 126 | 0.0 | 0.0 | 0.00 | 0.00 | 0.00 | 61 | 1009.9 |
| 20260509185715 | 89 | 131 | 0.0 | 2.6 | 0.00 | 0.00 | 0.00 | 58 | 1010.1 |
| 20260509185212 | 89 | 285 | 0.9 | 1.7 | 0.00 | 0.00 | 0.00 | 58 | 1010.3 |
| 20260509184709 | 89 | 263 | 0.9 | 0.9 | 0.00 | 0.00 | 0.00 | 63 | 1010.3 |
| 20260509184206 | 89 | 186 | 0.9 | 0.9 | 0.00 | 0.00 | 0.00 | 63 | 1010.3 |
| 20260509183702 | 88 | 221 | 0.9 | 2.6 | 0.00 | 0.00 | 0.00 | 63 | 1010.5 |
| 20260509183158 | 89 | 209 | 3.5 | 5.2 | 0.00 | 0.00 | 0.00 | 62 | 1010.3 |
| 20260509182653 | 88 | 221 | 1.7 | 1.7 | 0.00 | 0.00 | 0.00 | 63 | 1010.5 |
| 20260509182151 | 88 | 182 | 0.9 | 1.7 | 0.00 | 0.00 | 0.00 | 63 | 1010.8 |
| 20260509181649 | 89 | 228 | 1.7 | 1.7 | 0.00 | 0.00 | 0.00 | 64 | 1010.9 |
| 20260509181146 | 88 | 7 | 0.9 | 1.7 | 0.00 | 0.00 | 0.00 | 63 | 1010.9 |
| 20260509180642 | 87 | 141 | 0.0 | 1.7 | 0.00 | 0.00 | 0.00 | 64 | 1011.1 |
| 20260509180139 | 88 | 182 | 1.7 | 3.5 | 0.00 | 0.00 | 0.00 | 66 | 1011.2 |
| 20260509175635 | 88 | 120 | 0.9 | 2.6 | 0.00 | 0.00 | 0.00 | 64 | 1011.0 |
| 20260509175132 | 87 | 99 | 0.9 | 0.9 | 0.00 | 0.00 | 0.00 | 64 | 1011.3 |
| 20260509174628 | 86 | 233 | 0.9 | 2.6 | 0.00 | 0.00 | 0.00 | 67 | 1011.1 |
| 20260509174123 | 87 | 70 | 0.9 | 2.6 | 0.00 | 0.00 | 0.00 | 67 | 1011.2 |
| 20260509173619 | 87 | 105 | 0.0 | 1.7 | 0.00 | 0.00 | 0.00 | 66 | 1011.3 |
| 20260509173115 | 87 | 189 | 0.0 | 1.7 | 0.00 | 0.00 | 0.00 | 68 | 1011.4 |
| 20260509172612 | 87 | 222 | 1.7 | 1.7 | 0.00 | 0.00 | 0.00 | 69 | 1011.6 |
| 20260509172108 | 86 | 165 | 0.0 | 0.9 | 0.00 | 0.00 | 0.00 | 70 | 1011.3 |
| 20260509171604 | 85 | 194 | 0.0 | 0.9 | 0.00 | 0.00 | 0.00 | 70 | 1011.4 |
| 20260509171100 | 84 | 171 | 0.9 | 1.7 | 0.00 | 0.00 | 0.00 | 71 | 1011.5 |
| 20260509170556 | 84 | 124 | 0.0 | 0.0 | 0.00 | 0.00 | 0.00 | 75 | 1011.6 |
| 20260509170052 | 84 | 146 | 0.0 | 1.7 | 0.00 | 0.00 | 0.00 | 74 | 1011.7 |
| 20260509165551 | 84 | 152 | 0.0 | 0.9 | 0.00 | 0.00 | 0.00 | 72 | 1011.8 |
| 20260509165046 | 84 | 111 | 0.0 | 0.0 | 0.00 | 0.00 | 0.00 | 72 | 1011.6 |
| 20260509164543 | 84 | 62 | 0.9 | 0.9 | 0.00 | 0.00 | 0.00 | 70 | 1011.5 |
| 20260509164043 | 84 | 172 | 0.0 | 0.9 | 0.00 | 0.00 | 0.00 | 72 | 1011.5 |
| 20260509163542 | 85 | 174 | 0.9 | 0.9 | 0.00 | 0.00 | 0.00 | 71 | 1011.5 |
| 20260509163037 | 85 | 166 | 0.0 | 0.9 | 0.00 | 0.00 | 0.00 | 72 | 1011.4 |
| 20260509162535 | 84 | 149 | 0.0 | 0.0 | 0.00 | 0.00 | 0.00 | 74 | 1011.5 |
| 20260509162030 | 84 | 145 | 0.0 | 0.0 | 0.00 | 0.00 | 0.00 | 74 | 1011.4 |
| 20260509161528 | 84 | 121 | 0.0 | 0.0 | 0.00 | 0.00 | 0.00 | 76 | 1011.3 |
| 20260509161028 | 83 | 152 | 0.0 | 0.0 | 0.00 | 0.00 | 0.00 | 77 | 1011.4 |
| 20260509160524 | 83 | 83 | 0.9 | 1.7 | 0.00 | 0.00 | 0.00 | 77 | 1011.2 |
| 20260509160020 | 82 | 56 | 0.9 | 0.9 | 0.00 | 0.00 | 0.00 | 77 | 1011.2 |
| 20260509155515 | 82 | 106 | 0.0 | 0.9 | 0.00 | 0.00 | 0.00 | 79 | 1011.1 |
| 20260509155012 | 81 | 166 | 0.0 | 0.9 | 0.00 | 0.00 | 0.00 | 80 | 1011.3 |
| 20260509154508 | 81 | 115 | 0.0 | 0.9 | 0.00 | 0.00 | 0.00 | 80 | 1011.2 |
| 20260509154006 | 81 | 155 | 0.0 | 0.9 | 0.00 | 0.00 | 0.00 | 80 | 1011.3 |
| 20260509153503 | 81 | 167 | 0.0 | 0.9 | 0.00 | 0.00 | 0.00 | 79 | 1011.5 |
| 20260509152959 | 82 | 137 | 0.0 | 0.9 | 0.00 | 0.00 | 0.00 | 79 | 1011.3 |
| 20260509152455 | 82 | 210 | 0.9 | 0.9 | 0.00 | 0.00 | 0.00 | 78 | 1011.2 |
| 20260509151952 | 81 | 139 | 0.0 | 0.9 | 0.00 | 0.00 | 0.00 | 80 | 1011.3 |
| 20260509151448 | 81 | 207 | 0.0 | 1.7 | 0.00 | 0.00 | 0.00 | 79 | 1011.4 |
| 20260509150947 | 82 | 210 | 0.9 | 1.7 | 0.00 | 0.00 | 0.00 | 81 | 1011.4 |
| 20260509150444 | 81 | 160 | 0.0 | 0.9 | 0.00 | 0.00 | 0.00 | 82 | 1011.5 |
| 20260509145942 | 81 | 82 | 0.9 | 0.9 | 0.00 | 0.00 | 0.00 | 83 | 1011.2 |
| 20260509145442 | 80 | 95 | 0.0 | 0.9 | 0.00 | 0.00 | 0.00 | 84 | 1011.2 |
| 20260509144938 | 80 | 263 | 0.9 | 1.7 | 0.00 | 0.00 | 0.00 | 86 | 1011.1 |
| 20260509144435 | 79 | 161 | 0.0 | 0.9 | 0.00 | 0.00 | 0.00 | 88 | 1011.1 |
| 20260509143932 | 79 | 184 | 0.0 | 1.7 | 0.00 | 0.00 | 0.00 | 89 | 1011.1 |
| 20260509143430 | 78 | 177 | 0.0 | 0.9 | 0.00 | 0.00 | 0.00 | 92 | 1011.0 |
| 20260509142925 | 77 | 166 | 0.0 | 1.7 | 0.00 | 0.00 | 0.00 | 93 | 1010.8 |
| 20260509142422 | 77 | 172 | 0.0 | 0.9 | 0.00 | 0.00 | 0.00 | 94 | 1010.8 |
| 20260509141918 | 76 | 121 | 0.9 | 1.7 | 0.00 | 0.00 | 0.00 | 95 | 1010.6 |
| 20260509141415 | 75 | 95 | 0.9 | 2.6 | 0.00 | 0.00 | 0.00 | 95 | 1010.3 |
| 20260509140912 | 75 | 124 | 1.7 | 3.5 | 0.00 | 0.00 | 0.00 | 96 | 1010.5 |
| 20260509140408 | 75 | 171 | 2.6 | 3.5 | 0.00 | 0.00 | 0.00 | 97 | 1010.2 |
| 20260509135907 | 75 | 117 | 2.6 | 2.6 | 0.00 | 0.00 | 0.00 | 97 | 1010.1 |
| 20260509135404 | 75 | 105 | 0.0 | 0.0 | 0.00 | 0.00 | 0.00 | 97 | 1010.5 |
| 20260509134901 | 75 | 93 | 0.0 | 0.9 | 0.00 | 0.00 | 0.00 | 98 | 1010.7 |
| 20260509134358 | 75 | 121 | 0.0 | 1.7 | 0.00 | 0.00 | 0.00 | 97 | 1010.4 |
| 20260509133855 | 75 | 110 | 0.9 | 2.6 | 0.00 | 0.00 | 0.00 | 97 | 1010.0 |
| 20260509133352 | 75 | 168 | 0.9 | 2.6 | 0.00 | 0.00 | 0.00 | 98 | 1010.7 |
| 20260509132851 | 75 | 156 | 0.0 | 1.7 | 0.00 | 0.00 | 0.00 | 98 | 1010.9 |
| 20260509132348 | 74 | 180 | 0.9 | 1.7 | 0.00 | 0.00 | 0.00 | 98 | 1011.1 |
| 20260509131845 | 74 | 135 | 0.9 | 1.7 | 0.00 | 0.00 | 0.00 | 98 | 1011.5 |
| 20260509131342 | 74 | 181 | 0.9 | 1.7 | 0.00 | 0.00 | 0.00 | 98 | 1011.3 |
| 20260509130838 | 74 | 133 | 1.7 | 5.2 | 0.00 | 0.00 | 0.00 | 98 | 1011.2 |
| 20260509130334 | 74 | 147 | 1.7 | 2.6 | 0.00 | 0.00 | 0.00 | 98 | 1011.2 |
| 20260509125831 | 74 | 133 | 0.9 | 2.6 | 0.00 | 0.00 | 0.00 | 98 | 1011.5 |
| 20260509125327 | 74 | 118 | 0.9 | 0.9 | 0.00 | 0.00 | 0.00 | 98 | 1011.5 |
| 20260509124824 | 74 | 116 | 0.0 | 0.0 | 0.00 | 0.00 | 0.00 | 98 | 1011.6 |
| 20260509124320 | 74 | 113 | 0.0 | 0.9 | 0.00 | 0.00 | 0.00 | 98 | 1011.7 |
| 20260509123819 | 74 | 112 | 0.0 | 0.9 | 0.00 | 0.00 | 0.00 | 98 | 1011.7 |
| 20260509123316 | 74 | 114 | 0.0 | 0.0 | 0.00 | 0.00 | 0.00 | 98 | 1011.7 |
| 20260509122811 | 74 | 114 | 0.0 | 0.9 | 0.00 | 0.00 | 0.00 | 98 | 1011.7 |
| 20260509122308 | 74 | 81 | 0.0 | 0.9 | 0.00 | 0.00 | 0.00 | 98 | 1011.6 |
| 20260509121805 | 74 | 80 | 0.0 | 0.0 | 0.00 | 0.00 | 0.00 | 98 | 1011.7 |
| 20260509121302 | 74 | 80 | 0.0 | 0.0 | 0.00 | 0.00 | 0.00 | 98 | 1011.5 |